DLH19L ENBR-EDDM

Flight info

Callsign DLH19L
Flight time 2h 7m
Altitude 37000
Route TUXIL DCT ZOL DCT ATTUS DCT ABGUS Z94 GALMA T703 LULAR/N0451F360 T105 LANDU LANDU2B
Aircraft A321/M-SDE3FGHIJ1J5J6J7M1RWXY/LB1

Departure

Time 2026-05-06 17:44
Airport Bergen Airport, Flesland (ENBR)

Arrival

Time 2026-05-06 19:52
Airport Munich Airport (EDDM)
Time Latitude Longitude Altitude Speed Heading
2026-05-06 16:44 60.28932 5.22547 175 ft 0 kts 107°
2026-05-06 17:11 60.28938 5.22512 175 ft 3 kts 109°
2026-05-06 17:11 60.28946 5.22466 175 ft 3 kts 110°
2026-05-06 17:11 60.28954 5.22420 175 ft 3 kts 111°
2026-05-06 17:11 60.28963 5.22375 175 ft 3 kts 110°
2026-05-06 17:12 60.28964 5.22368 175 ft 0 kts 110°
2026-05-06 17:13 60.28961 5.22386 175 ft 3 kts 111°
2026-05-06 17:13 60.28952 5.22431 175 ft 3 kts 111°
2026-05-06 17:13 60.28944 5.22477 175 ft 3 kts 110°
2026-05-06 17:14 60.28936 5.22523 175 ft 3 kts 108°
2026-05-06 17:14 60.28932 5.22548 175 ft 0 kts 108°
2026-05-06 17:30 60.28937 5.22517 175 ft 3 kts 108°
2026-05-06 17:30 60.28944 5.22470 175 ft 3 kts 109°
2026-05-06 17:31 60.28952 5.22424 175 ft 3 kts 109°
2026-05-06 17:31 60.28960 5.22383 175 ft 1 kts 110°
2026-05-06 17:34 60.28959 5.22384 175 ft 0 kts 116°
2026-05-06 17:34 60.28954 5.22383 175 ft 1 kts 168°
2026-05-06 17:35 60.28947 5.22366 175 ft 4 kts 227°
2026-05-06 17:35 60.28948 5.22261 172 ft 9 kts 318°
2026-05-06 17:35 60.28986 5.22254 173 ft 6 kts 358°
2026-05-06 17:36 60.29140 5.22206 172 ft 16 kts 349°
2026-05-06 17:36 60.29266 5.22160 166 ft 21 kts 351°
2026-05-06 17:36 60.29427 5.22106 159 ft 26 kts 351°
2026-05-06 17:36 60.29614 5.22046 153 ft 29 kts 351°
2026-05-06 17:37 60.29792 5.21983 150 ft 25 kts 350°
2026-05-06 17:37 60.29954 5.21924 156 ft 23 kts 349°
2026-05-06 17:37 60.30104 5.21879 162 ft 21 kts 351°
2026-05-06 17:37 60.30245 5.21833 169 ft 21 kts 351°
2026-05-06 17:38 60.30401 5.21780 176 ft 24 kts 350°
2026-05-06 17:38 60.30550 5.21731 182 ft 13 kts 351°
2026-05-06 17:38 60.30595 5.21716 188 ft 0 kts 350°
2026-05-06 17:40 60.30599 5.21715 184 ft 3 kts 350°
2026-05-06 17:40 60.30643 5.21682 183 ft 11 kts 324°
2026-05-06 17:40 60.30660 5.21580 180 ft 0 kts 262°
2026-05-06 17:42 60.30660 5.21578 180 ft 1 kts 262°
2026-05-06 17:42 60.30656 5.21518 178 ft 7 kts 262°
2026-05-06 17:42 60.30646 5.21404 178 ft 8 kts 247°
2026-05-06 17:43 60.30617 5.21390 178 ft 0 kts 172°
2026-05-06 17:43 60.30615 5.21391 178 ft 2 kts 172°
2026-05-06 17:43 60.30380 5.21466 173 ft 75 kts 170°
2026-05-06 17:43 60.29607 5.21726 150 ft 148 kts 171°
2026-05-06 17:44 60.28452 5.22105 526 ft 172 kts 171°
2026-05-06 17:44 60.27285 5.22537 1443 ft 172 kts 172°
2026-05-06 17:44 60.26043 5.22957 2088 ft 192 kts 173°
2026-05-06 17:44 60.24657 5.23406 2519 ft 212 kts 173°
2026-05-06 17:45 60.23119 5.23902 2834 ft 237 kts 173°
2026-05-06 17:45 60.21415 5.24457 3288 ft 257 kts 173°
2026-05-06 17:45 60.19621 5.25050 4045 ft 264 kts 173°
2026-05-06 17:45 60.17798 5.25659 4939 ft 267 kts 172°
2026-05-06 17:46 60.15957 5.26275 5815 ft 269 kts 172°
2026-05-06 17:46 60.14106 5.26894 6680 ft 272 kts 172°
2026-05-06 17:46 60.12225 5.27521 7493 ft 275 kts 173°
2026-05-06 17:46 60.10966 5.27940 8032 ft 278 kts 173°
2026-05-06 17:47 60.08392 5.28780 9131 ft 283 kts 174°
2026-05-06 17:47 60.06435 5.29334 9938 ft 286 kts 175°
2026-05-06 17:47 60.05111 5.29683 10284 ft 296 kts 176°
2026-05-06 17:47 60.02987 5.30222 10504 ft 319 kts 176°
2026-05-06 17:48 60.00702 5.30794 10674 ft 342 kts 176°
2026-05-06 17:48 59.98271 5.31412 10930 ft 359 kts 176°
2026-05-06 17:48 59.95771 5.32067 11530 ft 365 kts 176°
2026-05-06 17:48 59.93244 5.32745 12240 ft 368 kts 177°
2026-05-06 17:49 59.90694 5.33430 12946 ft 371 kts 178°
2026-05-06 17:49 59.88126 5.34120 13666 ft 374 kts 178°
2026-05-06 17:49 59.85536 5.34815 14311 ft 377 kts 178°
2026-05-06 17:49 59.82926 5.35514 14937 ft 380 kts 179°
2026-05-06 17:50 59.80304 5.36216 15570 ft 382 kts 179°
2026-05-06 17:50 59.77658 5.36828 16176 ft 383 kts 181°
2026-05-06 17:50 59.75001 5.37305 16806 ft 384 kts 182°
2026-05-06 17:50 59.72332 5.37704 17408 ft 386 kts 182°
2026-05-06 17:51 59.69597 5.38086 18001 ft 388 kts 183°
2026-05-06 17:51 59.66951 5.38463 18538 ft 390 kts 183°
2026-05-06 17:51 59.64230 5.38879 19022 ft 394 kts 182°
2026-05-06 17:51 59.61522 5.39428 19489 ft 398 kts 181°
2026-05-06 17:52 59.58756 5.40115 19942 ft 403 kts 180°
2026-05-06 17:52 59.55971 5.40875 20436 ft 405 kts 179°
2026-05-06 17:52 59.53171 5.41660 20911 ft 408 kts 180°
2026-05-06 17:52 59.50344 5.42440 21382 ft 411 kts 180°
2026-05-06 17:53 59.47495 5.43200 21779 ft 414 kts 179°
2026-05-06 17:53 59.44627 5.43935 22215 ft 417 kts 180°
2026-05-06 17:53 59.41741 5.44651 22663 ft 420 kts 180°
2026-05-06 17:53 59.38826 5.45409 23125 ft 424 kts 179°
2026-05-06 17:54 59.35906 5.46338 23577 ft 428 kts 177°
2026-05-06 17:54 59.32959 5.47408 23947 ft 432 kts 176°
2026-05-06 17:54 59.30009 5.48559 24355 ft 433 kts 176°
2026-05-06 17:54 59.27047 5.49732 24780 ft 434 kts 176°
2026-05-06 17:55 59.24084 5.50887 25211 ft 435 kts 176°
2026-05-06 17:55 59.21113 5.52009 25619 ft 436 kts 176°
2026-05-06 17:55 59.18126 5.53103 25972 ft 437 kts 176°
2026-05-06 17:55 59.15130 5.54172 26364 ft 438 kts 176°
2026-05-06 17:56 59.12127 5.55231 26754 ft 440 kts 177°
2026-05-06 17:56 59.09114 5.56295 27126 ft 441 kts 177°
2026-05-06 17:56 59.06092 5.57368 27487 ft 442 kts 177°
2026-05-06 17:56 59.03059 5.58452 27832 ft 444 kts 177°
2026-05-06 17:57 59.00014 5.59545 28164 ft 445 kts 177°
2026-05-06 17:57 58.96963 5.60642 28470 ft 447 kts 177°
2026-05-06 17:57 58.93905 5.61736 28821 ft 446 kts 177°
2026-05-06 17:57 58.90860 5.62819 29236 ft 444 kts 177°
2026-05-06 17:58 58.87867 5.64112 29554 ft 450 kts 170°
2026-05-06 17:58 58.84920 5.66275 29921 ft 458 kts 162°
2026-05-06 17:58 58.82029 5.68858 30272 ft 458 kts 162°
2026-05-06 17:58 58.79141 5.71429 30598 ft 457 kts 162°
2026-05-06 17:59 58.76249 5.73995 30910 ft 457 kts 162°
2026-05-06 17:59 58.73359 5.76546 31200 ft 457 kts 162°
2026-05-06 17:59 58.70474 5.79081 31492 ft 457 kts 162°
2026-05-06 17:59 58.67579 5.81624 31788 ft 457 kts 162°
2026-05-06 18:00 58.64690 5.84158 32075 ft 457 kts 162°
2026-05-06 18:00 58.61798 5.86692 32354 ft 457 kts 162°
2026-05-06 18:00 58.58942 5.89187 32641 ft 457 kts 162°
2026-05-06 18:00 58.56050 5.91708 32922 ft 457 kts 162°
2026-05-06 18:01 58.53160 5.94227 33201 ft 457 kts 162°
2026-05-06 18:01 58.50268 5.96743 33483 ft 457 kts 162°
2026-05-06 18:01 58.47369 5.99259 33748 ft 457 kts 162°
2026-05-06 18:01 58.44476 6.01767 34012 ft 457 kts 162°
2026-05-06 18:02 58.41579 6.04272 34243 ft 457 kts 162°
2026-05-06 18:02 58.38683 6.06770 34452 ft 457 kts 162°
2026-05-06 18:02 58.35776 6.09271 34651 ft 458 kts 162°
2026-05-06 18:02 58.32872 6.11760 34816 ft 458 kts 161°
2026-05-06 18:03 58.29967 6.14249 35058 ft 457 kts 161°
2026-05-06 18:03 58.27073 6.16730 35272 ft 457 kts 161°
2026-05-06 18:03 58.24177 6.19208 35475 ft 456 kts 161°
2026-05-06 18:03 58.21284 6.21679 35708 ft 456 kts 161°
2026-05-06 18:04 58.18428 6.24112 35908 ft 456 kts 161°
2026-05-06 18:04 58.15533 6.26575 36106 ft 456 kts 161°
2026-05-06 18:04 58.12638 6.29034 36269 ft 457 kts 161°
2026-05-06 18:04 58.09738 6.31492 36442 ft 457 kts 161°
2026-05-06 18:05 58.06829 6.33950 36600 ft 458 kts 161°
2026-05-06 18:05 58.03922 6.36404 36738 ft 458 kts 161°
2026-05-06 18:05 58.01007 6.38857 36914 ft 458 kts 161°
2026-05-06 18:05 57.98098 6.41298 37017 ft 459 kts 161°
2026-05-06 18:06 57.92240 6.46211 37027 ft 461 kts 161°
2026-05-06 18:06 57.86371 6.51131 37027 ft 462 kts 161°
2026-05-06 18:07 57.80502 6.56021 37027 ft 462 kts 161°
2026-05-06 18:07 57.74674 6.60865 36983 ft 461 kts 161°
2026-05-06 18:08 57.68812 6.65711 37010 ft 461 kts 161°
2026-05-06 18:08 57.62951 6.70550 37029 ft 460 kts 161°
2026-05-06 18:09 57.57086 6.75362 37030 ft 460 kts 161°
2026-05-06 18:09 57.51227 6.80149 37034 ft 460 kts 161°
2026-05-06 18:10 57.45373 6.84928 37011 ft 460 kts 161°
2026-05-06 18:10 57.39516 6.89681 37032 ft 459 kts 161°
2026-05-06 18:11 57.33693 6.94390 37034 ft 459 kts 161°
2026-05-06 18:11 57.27842 6.99131 37034 ft 459 kts 161°
2026-05-06 18:12 57.21987 7.03852 37031 ft 459 kts 161°
2026-05-06 18:12 57.16133 7.08541 37019 ft 459 kts 161°
2026-05-06 18:13 57.10286 7.13202 37017 ft 458 kts 161°
2026-05-06 18:13 57.04440 7.17838 37038 ft 457 kts 161°
2026-05-06 18:14 56.98615 7.22462 37041 ft 456 kts 161°
2026-05-06 18:14 56.92797 7.27087 37040 ft 456 kts 161°
2026-05-06 18:15 56.87014 7.31641 37022 ft 455 kts 161°
2026-05-06 18:15 56.81195 7.36191 37032 ft 455 kts 161°
2026-05-06 18:16 56.75373 7.40756 37035 ft 455 kts 161°
2026-05-06 18:16 56.69570 7.45302 37039 ft 454 kts 161°
2026-05-06 18:17 56.63754 7.49820 37033 ft 454 kts 162°
2026-05-06 18:17 56.57946 7.54321 37018 ft 454 kts 161°
2026-05-06 18:18 56.52142 7.58793 37030 ft 453 kts 161°
2026-05-06 18:18 56.46338 7.63258 37030 ft 453 kts 161°
2026-05-06 18:19 56.40584 7.67681 37031 ft 452 kts 161°
2026-05-06 18:19 56.34792 7.72121 37030 ft 452 kts 162°
2026-05-06 18:20 56.29000 7.76523 37015 ft 452 kts 161°
2026-05-06 18:20 56.23210 7.80913 37020 ft 452 kts 161°
2026-05-06 18:21 56.17421 7.85294 37020 ft 451 kts 162°
2026-05-06 18:21 56.11631 7.89664 37019 ft 451 kts 162°
2026-05-06 18:22 56.05845 7.94020 37017 ft 451 kts 162°
2026-05-06 18:22 56.00086 7.98334 36989 ft 451 kts 161°
2026-05-06 18:23 55.94307 8.02668 37013 ft 451 kts 161°
2026-05-06 18:23 55.88521 8.06968 37014 ft 451 kts 161°
2026-05-06 18:24 55.82732 8.11255 37014 ft 450 kts 161°
2026-05-06 18:24 55.76878 8.15607 37000 ft 450 kts 161°
2026-05-06 18:25 55.71163 8.19832 36991 ft 450 kts 161°
2026-05-06 18:25 55.65381 8.24077 36993 ft 450 kts 162°
2026-05-06 18:26 55.59628 8.28280 36990 ft 450 kts 162°
2026-05-06 18:26 55.53836 8.32492 36979 ft 450 kts 162°
2026-05-06 18:27 55.48053 8.36703 36942 ft 450 kts 161°
2026-05-06 18:27 55.42268 8.40911 36959 ft 450 kts 161°
2026-05-06 18:28 55.36478 8.45112 36981 ft 450 kts 162°
2026-05-06 18:28 55.30685 8.49280 36980 ft 450 kts 162°
2026-05-06 18:29 55.24897 8.53437 36975 ft 450 kts 162°
2026-05-06 18:29 55.19141 8.57561 36959 ft 450 kts 161°
2026-05-06 18:30 55.13350 8.61701 36957 ft 450 kts 161°
2026-05-06 18:30 55.07524 8.65848 36962 ft 450 kts 162°
2026-05-06 18:31 55.01726 8.69965 36962 ft 450 kts 161°
2026-05-06 18:31 54.95931 8.74080 36962 ft 450 kts 162°
2026-05-06 18:32 54.90139 8.78177 36932 ft 449 kts 161°
2026-05-06 18:32 54.84404 8.82538 36955 ft 451 kts 158°
2026-05-06 18:33 54.78743 8.87234 36961 ft 451 kts 158°
2026-05-06 18:33 54.73083 8.91905 36952 ft 451 kts 158°
2026-05-06 18:34 54.67366 8.96512 36935 ft 450 kts 158°
2026-05-06 18:34 54.61666 9.01041 36953 ft 450 kts 159°
2026-05-06 18:35 54.55947 9.05577 36954 ft 450 kts 159°
2026-05-06 18:35 54.50258 9.10104 36948 ft 450 kts 159°
2026-05-06 18:36 54.44603 9.14591 36935 ft 450 kts 159°
2026-05-06 18:36 54.38912 9.19080 36930 ft 450 kts 159°
2026-05-06 18:37 54.34177 9.22802 36936 ft 450 kts 159°
2026-05-06 18:37 54.27527 9.28014 36932 ft 450 kts 159°
2026-05-06 18:38 54.21836 9.32463 36933 ft 450 kts 159°
2026-05-06 18:38 54.16138 9.36912 36925 ft 450 kts 159°
2026-05-06 18:39 54.10441 9.41348 36916 ft 450 kts 159°
2026-05-06 18:40 54.01895 9.47966 36916 ft 450 kts 159°
2026-05-06 18:40 53.96193 9.52363 36921 ft 450 kts 159°
2026-05-06 18:41 53.90507 9.56732 36926 ft 450 kts 159°
2026-05-06 18:41 53.84808 9.61094 36908 ft 449 kts 159°
2026-05-06 18:42 53.79120 9.65451 36913 ft 449 kts 159°
2026-05-06 18:42 53.73422 9.69793 36914 ft 449 kts 159°
2026-05-06 18:43 53.68670 9.73403 36915 ft 449 kts 159°
2026-05-06 18:43 53.62945 9.77735 36914 ft 449 kts 159°
2026-05-06 18:44 53.57224 9.82060 36906 ft 449 kts 159°
2026-05-06 18:44 53.51537 9.86349 36912 ft 449 kts 159°
2026-05-06 18:45 53.45844 9.90628 36914 ft 449 kts 159°
2026-05-06 18:45 53.40136 9.94908 36909 ft 449 kts 159°
2026-05-06 18:46 53.34474 9.99141 36909 ft 449 kts 159°
2026-05-06 18:46 53.28977 10.03227 36899 ft 449 kts 159°
2026-05-06 18:47 53.23309 10.07432 36901 ft 449 kts 159°
2026-05-06 18:47 53.17616 10.11660 36898 ft 448 kts 159°
2026-05-06 18:48 53.12008 10.15805 36896 ft 448 kts 159°
2026-05-06 18:48 53.06301 10.20002 36889 ft 448 kts 159°
2026-05-06 18:49 53.00473 10.24269 36879 ft 448 kts 160°
2026-05-06 18:49 52.94886 10.28356 36888 ft 448 kts 160°
2026-05-06 18:50 52.89185 10.32524 36891 ft 448 kts 160°
2026-05-06 18:50 52.83484 10.36673 36889 ft 448 kts 160°
2026-05-06 18:51 52.77776 10.40813 36876 ft 448 kts 160°
2026-05-06 18:51 52.72110 10.44914 36881 ft 448 kts 160°
2026-05-06 18:52 52.66270 10.49125 36877 ft 448 kts 160°
2026-05-06 18:52 52.60697 10.53139 36878 ft 447 kts 160°
2026-05-06 18:53 52.54997 10.57229 36855 ft 447 kts 160°
2026-05-06 18:53 52.49294 10.61302 36851 ft 447 kts 160°
2026-05-06 18:54 52.43599 10.65365 36856 ft 446 kts 160°
2026-05-06 18:54 52.37900 10.69415 36860 ft 446 kts 160°
2026-05-06 18:55 52.32249 10.73407 36860 ft 445 kts 161°
2026-05-06 18:55 52.26478 10.77085 36851 ft 444 kts 163°
2026-05-06 18:56 52.20679 10.80509 36855 ft 444 kts 163°
2026-05-06 18:56 52.14881 10.83960 36852 ft 444 kts 163°
2026-05-06 18:57 52.09096 10.87484 36832 ft 443 kts 163°
2026-05-06 18:57 52.03328 10.91003 36851 ft 443 kts 163°
2026-05-06 18:58 51.97560 10.94501 36844 ft 442 kts 163°
2026-05-06 18:58 51.91790 10.97994 36834 ft 442 kts 163°
2026-05-06 18:59 51.86028 11.01456 36837 ft 442 kts 163°
2026-05-06 18:59 51.80293 11.04898 36836 ft 442 kts 163°
2026-05-06 19:00 51.74522 11.08361 36825 ft 442 kts 163°
2026-05-06 19:00 51.68759 11.11810 36830 ft 442 kts 163°
2026-05-06 19:01 51.62992 11.15239 36833 ft 442 kts 163°
2026-05-06 19:01 51.57228 11.18662 36822 ft 441 kts 163°
2026-05-06 19:02 51.51476 11.22064 36831 ft 440 kts 163°
2026-05-06 19:02 51.45736 11.25454 36828 ft 439 kts 163°
2026-05-06 19:03 51.40014 11.28838 36828 ft 438 kts 163°
2026-05-06 19:03 51.34336 11.32188 36826 ft 437 kts 164°
2026-05-06 19:04 51.28623 11.35529 36822 ft 437 kts 164°
2026-05-06 19:04 51.22917 11.38860 36810 ft 436 kts 164°
2026-05-06 19:05 51.17219 11.42181 36815 ft 436 kts 164°
2026-05-06 19:05 51.11518 11.45503 36791 ft 436 kts 165°
2026-05-06 19:05 51.08668 11.47154 36607 ft 437 kts 165°
2026-05-06 19:06 51.05851 11.48784 36147 ft 435 kts 165°
2026-05-06 19:06 51.02967 11.50449 35692 ft 432 kts 165°
2026-05-06 19:06 51.00201 11.52049 35252 ft 430 kts 165°
2026-05-06 19:06 50.97397 11.53673 34879 ft 427 kts 165°
2026-05-06 19:07 50.94613 11.55283 34761 ft 426 kts 165°
2026-05-06 19:07 50.89024 11.58496 34794 ft 427 kts 165°
2026-05-06 19:08 50.83429 11.61714 34797 ft 428 kts 165°
2026-05-06 19:08 50.77876 11.64899 34796 ft 427 kts 165°
2026-05-06 19:09 50.72258 11.68124 34791 ft 425 kts 165°
2026-05-06 19:09 50.66683 11.71297 34798 ft 425 kts 165°
2026-05-06 19:10 50.61135 11.74434 34779 ft 425 kts 166°
2026-05-06 19:10 50.55560 11.77586 34790 ft 426 kts 166°
2026-05-06 19:11 50.49977 11.80739 34800 ft 426 kts 166°
2026-05-06 19:11 50.44414 11.83961 34809 ft 428 kts 163°
2026-05-06 19:12 50.38932 11.87648 34819 ft 430 kts 161°
2026-05-06 19:12 50.33475 11.91488 34822 ft 430 kts 161°
2026-05-06 19:13 50.27985 11.95247 34824 ft 429 kts 162°
2026-05-06 19:13 50.22511 11.98919 34576 ft 429 kts 162°
2026-05-06 19:13 50.19774 12.00749 34113 ft 427 kts 162°
2026-05-06 19:14 50.17048 12.02574 33670 ft 425 kts 163°
2026-05-06 19:14 50.14338 12.04392 33173 ft 425 kts 163°
2026-05-06 19:14 50.11626 12.06207 32684 ft 425 kts 162°
2026-05-06 19:14 50.08899 12.08031 32196 ft 426 kts 162°
2026-05-06 19:15 50.06174 12.09852 31730 ft 427 kts 162°
2026-05-06 19:15 50.03447 12.11672 31269 ft 428 kts 162°
2026-05-06 19:15 50.00704 12.13504 30806 ft 429 kts 162°
2026-05-06 19:15 49.98002 12.15310 30365 ft 428 kts 162°
2026-05-06 19:16 49.95265 12.17139 29920 ft 428 kts 162°
2026-05-06 19:16 49.92526 12.18964 29422 ft 430 kts 161°
2026-05-06 19:16 49.89769 12.20791 28891 ft 431 kts 161°
2026-05-06 19:16 49.87004 12.22614 28398 ft 434 kts 161°
2026-05-06 19:17 49.84190 12.24467 27902 ft 436 kts 161°
2026-05-06 19:17 49.81421 12.26295 27420 ft 439 kts 161°
2026-05-06 19:17 49.78608 12.28157 26954 ft 441 kts 161°
2026-05-06 19:17 49.75783 12.30018 26746 ft 441 kts 161°
2026-05-06 19:18 49.72978 12.32008 26799 ft 445 kts 156°
2026-05-06 19:18 49.70340 12.34542 26797 ft 450 kts 149°
2026-05-06 19:18 49.67827 12.37429 26787 ft 449 kts 152°
2026-05-06 19:18 49.65070 12.39574 26458 ft 440 kts 166°
2026-05-06 19:19 49.62141 12.40480 25950 ft 429 kts 180°
2026-05-06 19:19 49.59159 12.40368 25450 ft 425 kts 186°
2026-05-06 19:19 49.56205 12.40138 24968 ft 425 kts 186°
2026-05-06 19:19 49.53256 12.39916 24475 ft 424 kts 185°
2026-05-06 19:20 49.50311 12.39705 23997 ft 423 kts 185°
2026-05-06 19:20 49.47410 12.39509 23533 ft 423 kts 185°
2026-05-06 19:20 49.44433 12.39307 23013 ft 422 kts 185°
2026-05-06 19:20 49.41503 12.39109 22462 ft 420 kts 185°
2026-05-06 19:21 49.38592 12.38917 21928 ft 418 kts 185°
2026-05-06 19:21 49.35614 12.38719 21380 ft 416 kts 185°
2026-05-06 19:21 49.32813 12.38530 20877 ft 413 kts 185°
2026-05-06 19:21 49.29934 12.38329 20362 ft 411 kts 185°
2026-05-06 19:22 49.27141 12.38130 19866 ft 408 kts 185°
2026-05-06 19:22 49.24312 12.37928 19382 ft 406 kts 185°
2026-05-06 19:22 49.21500 12.37730 18899 ft 404 kts 185°
2026-05-06 19:22 49.18698 12.37539 18428 ft 402 kts 184°
2026-05-06 19:23 49.15912 12.37354 17939 ft 400 kts 184°
2026-05-06 19:23 49.13148 12.37169 17402 ft 397 kts 184°
2026-05-06 19:23 49.10391 12.36983 16876 ft 394 kts 184°
2026-05-06 19:23 49.07661 12.36796 16348 ft 391 kts 184°
2026-05-06 19:24 49.04973 12.36405 15833 ft 387 kts 193°
2026-05-06 19:24 49.02376 12.35374 15338 ft 384 kts 196°
2026-05-06 19:24 48.99803 12.34319 14847 ft 382 kts 196°
2026-05-06 19:24 48.97248 12.33266 14362 ft 379 kts 196°
2026-05-06 19:25 48.94710 12.32216 13893 ft 377 kts 196°
2026-05-06 19:25 48.92183 12.31169 13392 ft 374 kts 196°
2026-05-06 19:25 48.89653 12.30119 12850 ft 371 kts 196°
2026-05-06 19:25 48.87167 12.29091 12324 ft 368 kts 196°
2026-05-06 19:26 48.84698 12.28076 11824 ft 364 kts 197°
2026-05-06 19:26 48.82175 12.27045 11281 ft 359 kts 197°
2026-05-06 19:26 48.79881 12.26105 10810 ft 355 kts 197°
2026-05-06 19:26 48.78311 12.25463 10482 ft 349 kts 197°
2026-05-06 19:27 48.75238 12.24210 9850 ft 336 kts 197°
2026-05-06 19:27 48.73032 12.23312 9326 ft 316 kts 198°
2026-05-06 19:27 48.71029 12.22499 8814 ft 292 kts 197°
2026-05-06 19:27 48.69100 12.21717 8280 ft 274 kts 197°
2026-05-06 19:28 48.67279 12.20973 7790 ft 269 kts 198°
2026-05-06 19:28 48.65480 12.20236 7283 ft 267 kts 200°
2026-05-06 19:28 48.63702 12.19508 6784 ft 263 kts 201°
2026-05-06 19:28 48.61936 12.18786 6305 ft 264 kts 201°
2026-05-06 19:29 48.60152 12.18056 5801 ft 267 kts 201°
2026-05-06 19:29 48.58349 12.17323 5291 ft 269 kts 201°
2026-05-06 19:29 48.56547 12.16593 4998 ft 264 kts 200°
2026-05-06 19:29 48.54785 12.15881 4966 ft 262 kts 201°
2026-05-06 19:30 48.53229 12.15246 4966 ft 262 kts 201°
2026-05-06 19:30 48.51795 12.14661 4981 ft 262 kts 201°
2026-05-06 19:30 48.50031 12.13945 4988 ft 263 kts 201°
2026-05-06 19:30 48.48280 12.13238 4982 ft 254 kts 201°
2026-05-06 19:31 48.46607 12.12574 4827 ft 245 kts 201°
2026-05-06 19:31 48.44939 12.11903 4418 ft 246 kts 201°
2026-05-06 19:31 48.41776 12.10628 4124 ft 227 kts 202°
2026-05-06 19:32 48.40291 12.09986 4032 ft 222 kts 209°
2026-05-06 19:32 48.39112 12.08657 3993 ft 209 kts 237°
2026-05-06 19:32 48.38532 12.06701 3999 ft 204 kts 262°
2026-05-06 19:32 48.38367 12.04640 3996 ft 190 kts 265°
2026-05-06 19:33 48.38235 12.02777 4006 ft 167 kts 265°
2026-05-06 19:33 48.38115 12.01141 3928 ft 149 kts 265°
2026-05-06 19:33 48.38006 11.99658 3801 ft 138 kts 265°
2026-05-06 19:33 48.37902 11.98256 3642 ft 133 kts 265°
2026-05-06 19:34 48.37800 11.96890 3474 ft 131 kts 265°
2026-05-06 19:34 48.37699 11.95533 3303 ft 130 kts 265°
2026-05-06 19:34 48.37598 11.94179 3134 ft 130 kts 265°
2026-05-06 19:34 48.37497 11.92834 2964 ft 130 kts 265°
2026-05-06 19:35 48.37396 11.91489 2782 ft 129 kts 265°
2026-05-06 19:35 48.37295 11.90145 2599 ft 130 kts 264°
2026-05-06 19:35 48.37193 11.88793 2399 ft 131 kts 263°
2026-05-06 19:35 48.37076 11.87323 2133 ft 129 kts 263°
2026-05-06 19:36 48.36980 11.86114 1988 ft 127 kts 263°
2026-05-06 19:36 48.36891 11.84791 1850 ft 129 kts 263°
2026-05-06 19:36 48.36757 11.83182 1647 ft 130 kts 263°
2026-05-06 19:36 48.36682 11.82054 1516 ft 127 kts 263°
2026-05-06 19:37 48.36590 11.80838 1486 ft 105 kts 263°
2026-05-06 19:37 48.36498 11.79724 2292 ft 100 kts 264°
2026-05-06 19:37 48.36439 11.78547 2975 ft 123 kts 265°
2026-05-06 19:37 48.36318 11.77221 3374 ft 137 kts 264°
2026-05-06 19:38 48.36196 11.75700 3555 ft 156 kts 271°
2026-05-06 19:38 48.36455 11.74042 3755 ft 170 kts 291°
2026-05-06 19:38 48.37189 11.72604 4051 ft 178 kts 312°
2026-05-06 19:38 48.38329 11.71655 4338 ft 197 kts 329°
2026-05-06 19:39 48.39650 11.70786 4677 ft 216 kts 330°
2026-05-06 19:39 48.41091 11.69975 4961 ft 228 kts 343°
2026-05-06 19:39 48.42702 11.70186 5005 ft 243 kts 15°
2026-05-06 19:39 48.44099 11.71698 5007 ft 257 kts 46°
2026-05-06 19:40 48.44867 11.74167 5004 ft 266 kts 76°
2026-05-06 19:40 48.45137 11.76939 5004 ft 268 kts 82°
2026-05-06 19:40 48.45326 11.79732 5010 ft 268 kts 83°
2026-05-06 19:40 48.45501 11.82480 4812 ft 267 kts 83°
2026-05-06 19:41 48.45673 11.85256 4460 ft 265 kts 83°
2026-05-06 19:41 48.45842 11.88015 4128 ft 264 kts 83°
2026-05-06 19:41 48.46008 11.90736 3996 ft 256 kts 83°
2026-05-06 19:41 48.46167 11.93341 4020 ft 246 kts 83°
2026-05-06 19:42 48.46322 11.95891 4001 ft 243 kts 83°
2026-05-06 19:42 48.46477 11.98416 4001 ft 242 kts 83°
2026-05-06 19:42 48.46632 12.00966 3994 ft 241 kts 83°
2026-05-06 19:42 48.46786 12.03484 3994 ft 242 kts 83°
2026-05-06 19:43 48.46941 12.06023 4001 ft 244 kts 84°
2026-05-06 19:43 48.47096 12.08560 3996 ft 243 kts 84°
2026-05-06 19:43 48.47252 12.11094 3991 ft 242 kts 84°
2026-05-06 19:43 48.47406 12.13612 3986 ft 242 kts 83°
2026-05-06 19:44 48.47488 12.16145 3981 ft 243 kts 97°
2026-05-06 19:44 48.46871 12.18475 3984 ft 240 kts 133°
2026-05-06 19:44 48.45589 12.19923 3980 ft 226 kts 168°
2026-05-06 19:44 48.44110 12.20286 3978 ft 209 kts 194°
2026-05-06 19:45 48.42886 12.19516 3981 ft 177 kts 230°
2026-05-06 19:45 48.42139 12.18190 4003 ft 161 kts 241°
2026-05-06 19:45 48.41506 12.16836 4014 ft 157 kts 242°
2026-05-06 19:45 48.40889 12.15484 4001 ft 156 kts 242°
2026-05-06 19:46 48.40277 12.14138 3999 ft 155 kts 242°
2026-05-06 19:46 48.39669 12.12800 3995 ft 155 kts 242°
2026-05-06 19:46 48.39069 12.11475 3996 ft 155 kts 243°
2026-05-06 19:46 48.38813 12.09924 4004 ft 150 kts 270°
2026-05-06 19:47 48.38706 12.08380 4000 ft 151 kts 263°
2026-05-06 19:47 48.38562 12.06818 3998 ft 151 kts 265°
2026-05-06 19:47 48.38434 12.05255 4000 ft 150 kts 265°
2026-05-06 19:47 48.38313 12.03695 4007 ft 150 kts 265°
2026-05-06 19:48 48.38194 12.02136 3996 ft 150 kts 265°
2026-05-06 19:48 48.38077 12.00577 3889 ft 150 kts 265°
2026-05-06 19:48 48.37961 11.99029 3715 ft 149 kts 265°
2026-05-06 19:48 48.37846 11.97481 3543 ft 148 kts 265°
2026-05-06 19:49 48.37730 11.95944 3347 ft 148 kts 265°
2026-05-06 19:49 48.37615 11.94409 3164 ft 147 kts 265°
2026-05-06 19:49 48.37495 11.92791 2951 ft 163 kts 265°
2026-05-06 19:49 48.37375 11.91210 2737 ft 142 kts 265°
2026-05-06 19:50 48.37267 11.89785 2542 ft 134 kts 264°
2026-05-06 19:50 48.37163 11.88402 2346 ft 130 kts 263°
2026-05-06 19:50 48.37063 11.87085 2160 ft 127 kts 263°
2026-05-06 19:50 48.36961 11.85727 1987 ft 127 kts 264°
2026-05-06 19:51 48.36861 11.84415 1806 ft 126 kts 263°
2026-05-06 19:51 48.36758 11.83104 1625 ft 126 kts 263°
2026-05-06 19:51 48.36660 11.81786 1483 ft 126 kts 263°
2026-05-06 19:51 48.36574 11.80628 1469 ft 95 kts 264°
2026-05-06 19:52 48.36522 11.79958 1459 ft 26 kts 262°
2026-05-06 19:52 48.36453 11.79715 1463 ft 24 kts 236°
2026-05-06 19:52 48.36359 11.79514 1461 ft 22 kts 235°
2026-05-06 19:52 48.36277 11.79349 1463 ft 13 kts 232°
2026-05-06 19:53 48.36195 11.79297 1468 ft 14 kts 178°
2026-05-06 19:53 48.36108 11.79316 1465 ft 11 kts 173°
2026-05-06 19:53 48.36026 11.79330 1460 ft 12 kts 173°
2026-05-06 19:53 48.35963 11.79341 1466 ft 5 kts 173°
2026-05-06 19:54 48.35916 11.79354 1460 ft 8 kts 162°
2026-05-06 19:54 48.35853 11.79383 1462 ft 11 kts 169°
2026-05-06 19:54 48.35791 11.79427 1465 ft 8 kts 104°
2026-05-06 19:54 48.35794 11.79528 1464 ft 11 kts 83°
2026-05-06 19:55 48.35806 11.79681 1463 ft 16 kts 83°
2026-05-06 19:55 48.35819 11.79863 1465 ft 19 kts 83°
2026-05-06 19:55 48.35817 11.79995 1458 ft 13 kts 112°
2026-05-06 19:55 48.35739 11.80072 1462 ft 15 kts 170°
2026-05-06 19:56 48.35652 11.80096 1462 ft 11 kts 163°
2026-05-06 19:56 48.35574 11.80116 1459 ft 7 kts 173°
2026-05-06 19:56 48.35532 11.80120 1464 ft 1 kts 192°
2026-05-06 19:56 48.35521 11.80099 1467 ft 6 kts 238°
2026-05-06 19:57 48.35514 11.80060 1463 ft 4 kts 259°
2026-05-06 19:57 48.35511 11.80027 1461 ft 0 kts 261°